Zurück zum Katalog

ECHO 1 DEB

METAL OBJ

AktivLEO
NORAD 53·DEBRIS·🇺🇸 United States

Gestartet Aug 12, 1960 von Cape Canaveral Space Force Station

Loading…

Nächste Überflüge (nächste 24 Stunden)

TLE

AktuellSource: Space-Track

Epoche: Sep 6, 2026, 23:48 UTC

1 00053U 60009E   26249.99201468 -.00000166  00000-0 -80543-3 0  9993
2 00053  47.2764  89.9828 0098381 318.3193  41.0130 12.17413383945393

Verfolge ECHO 1 DEB in Echtzeit mit AllMySat

Download on the App Store